[[{"header":{"parameterUnit":"m.s-1","parameterCategory":1,"la1":30.2991,"la2":30.254,"lo1":-89.0895,"lo2":-89.0444,"dy":0.0017,"dx":0.0017,"nx":28,"ny":28,"refTime":"2025-02-26T09:00:00:Z","depth":0,"parameterNumber":2,"parameterNumberName":"U-component_of_WINDS"},"data":[0,0,0,0,0,0,0,0,0,0,0,0,0,0,0,0,0,0,0,0,0,0,0,0,0,0,0,0,0,0,0,0,0,0,0,0,0,0,0,0,0,0,0,0,0,0,0,0,0,0,0,0,0,0,0,0,0,0,0.6586,0.6586,0,0.6629,0.663,0.663,0.6653,0.6653,0.6653,0.6653,0.6699,0.67,0.6701,0,0,0,0,0,0,0,0,0,0,0,0,0,0.6524,0.6525,0.6586,0.6586,0.6587,0.6629,0.663,0.663,0.6653,0.6653,0.6653,0.6653,0.6698,0.67,0.6701,0,0,0,0,0,0,0,0,0,0,0,0,0,0.6558,0.6526,0.6586,0.6603,0.6605,0.6629,0.663,0.663,0.6653,0.6653,0.6653,0.6653,0.6698,0.67,0.6701,0.6712,0,0,0.6707,0.6708,0,0,0,0,0,0,0,0,0.6556,0.656,0.66,0.6602,0.6604,0.6636,0.6625,0.6658,0.6653,0.6635,0.6653,0.6653,0.6678,0.6681,0.6689,0.6714,0.6716,0.6707,0.6708,0.6709,0.6709,0,0,0,0,0,0,0,0.6554,0.6558,0.6603,0.6601,0.6603,0.661,0.6614,0.6631,0.6656,0.6636,0.6638,0.6643,0.6679,0.6688,0.6691,0.6716,0.6707,0.6709,0.671,0.671,0.6753,0.6753,0,0,0,0,0,0,0.6548,0.6556,0.6602,0.6604,0.658,0.6611,0.6616,0.6626,0.6655,0.666,0.6643,0.6644,0.6684,0.6688,0.6692,0.6707,0.6709,0.6711,0.6712,0.6753,0.6753,0.6753,0,0,0,0,0,0,0.6547,0.6552,0.66,0.6581,0.6587,0.6612,0.6622,0.6626,0.6635,0.666,0.6665,0.6647,0.6685,0.669,0.6707,0.6709,0.6711,0.6713,0.6753,0.6753,0.6753,0.6736,0,0,0,0,0,0,0.6545,0.6551,0.6555,0.6581,0.6588,0.6613,0.6622,0.6627,0.6638,0.664,0.6665,0.667,0.6685,0.6704,0.6709,0.6711,0.6714,0.6753,0.6753,0.6753,0.6736,0.6735,0.6735,0,0,0,0,0,0.6543,0.6548,0.6555,0.656,0.6593,0.6613,0.6617,0.6635,0.6638,0.6642,0.6659,0.6669,0.6708,0.6706,0.6711,0.6714,0.6753,0.6753,0.6753,0.6737,0.6736,0.6735,0,0,0,0,0,0,0.6522,0.6552,0.656,0.6574,0.6591,0.6617,0.6622,0.6633,0.6649,0.665,0.6671,0.6677,0.6692,0.6705,0.6702,0.6727,0.6731,0.6733,0.6717,0.6717,0.6716,0.6712,0.6716,0,0,0,0,0,0.6519,0.6533,0.6558,0.6568,0.6576,0.6598,0.6607,0.6619,0.6638,0.6645,0.6663,0.6681,0.6697,0.6708,0.6724,0.6739,0.6745,0.6744,0.6743,0.6742,0.6743,0.6753,0.6752,0.6753,0.6753,0.6753,0,0,0.6514,0.6532,0.6539,0.6565,0.6579,0.6593,0.6604,0.6618,0.6629,0.6647,0.6664,0.6678,0.67,0.6716,0.6724,0.6727,0.6744,0.6742,0.6741,0.6743,0.6753,0.6753,0.6752,0.6753,0.6753,0.6753,0,0,0.651,0.6525,0.6535,0.655,0.6572,0.6586,0.6589,0.6614,0.6623,0.6641,0.6656,0.6669,0.6697,0.6712,0.6723,0.6727,0.6738,0.6732,0.6727,0.6737,0.6737,0.6737,0.6739,0.6739,0.6733,0.6733,0.6733,0,0.6501,0.6522,0.654,0.6553,0.6565,0.6582,0.6593,0.6607,0.6633,0.6641,0.6644,0.668,0.6695,0.6716,0.6717,0.6725,0.673,0.6729,0.6735,0.6735,0.6736,0.6738,0.6739,0.6732,0.6732,0.6732,0.6732,0,0.6509,0.6523,0.6529,0.6554,0.6566,0.6579,0.6599,0.661,0.6621,0.6635,0.6654,0.6673,0.6695,0.67,0.6711,0.6723,0.6724,0.6731,0.6736,0.6734,0.6737,0.6738,0.6731,0.6731,0.6731,0.6731,0,0,0.6494,0.6529,0.6531,0.6543,0.6569,0.6581,0.6594,0.6615,0.6624,0.6642,0.6654,0.6678,0.6684,0.6697,0.671,0.6718,0.6721,0.6724,0.6725,0.6723,0.6736,0.6731,0.6732,0.6728,0.6729,0.6729,0.6735,0,0.6495,0.6519,0.6536,0.6555,0.6569,0.6586,0.6598,0.6616,0.663,0.6645,0.6661,0.6678,0.6685,0.6693,0.6702,0.6719,0.6724,0.6719,0.6741,0.6742,0.6735,0.6733,0.6728,0.6732,0.6736,0.6736,0.6736,0,0.6499,0.6516,0.6536,0.6561,0.6568,0.6578,0.6599,0.6613,0.6633,0.6643,0.6658,0.6672,0.6688,0.6692,0.6715,0.6711,0.6721,0.6731,0.6732,0.6735,0.6739,0.6737,0.6734,0.6735,0.6738,0.6738,0.6737,0,0.6486,0.6515,0.653,0.654,0.657,0.6577,0.659,0.6611,0.6622,0.6641,0.6649,0.6669,0.668,0.6696,0.6715,0.6716,0.6737,0.6742,0.6746,0.6746,0.675,0.6749,0.6749,0.6756,0.6756,0.6756,0.6756,0,0.6486,0.6497,0.6525,0.6535,0.6549,0.6569,0.6582,0.6597,0.6616,0.6629,0.6645,0.6658,0.6682,0.6698,0.6713,0.673,0.6735,0.6744,0.6748,0.6743,0.6742,0.675,0.675,0.6756,0.6756,0.6756,0.6756,0,0.6475,0.6494,0.6512,0.6539,0.6546,0.6555,0.6578,0.6589,0.6604,0.6621,0.6627,0.6651,0.667,0.6691,0.6717,0.6727,0.6745,0.675,0.6737,0.674,0.6743,0.6742,0.6748,0.6751,0.6755,0.6755,0.6755,0,0.6473,0.6482,0.651,0.652,0.6533,0.6549,0.6561,0.6581,0.6593,0.6618,0.6626,0.6647,0.6664,0.6695,0.6716,0.6736,0.6742,0.6743,0.6746,0.674,0.6743,0.6743,0.6744,0.6742,0.6742,0.6742,0.6742,0,0.6469,0.6478,0.6494,0.6514,0.6528,0.6545,0.6563,0.657,0.6594,0.6607,0.6627,0.6641,0.6668,0.6689,0.6712,0.6726,0.6739,0.6741,0.6743,0.6738,0.6731,0.6735,0.6735,0.6741,0.6741,0.6741,0.6741,0.6741,0.6463,0.6472,0.6494,0.6512,0.6527,0.6543,0.6555,0.6572,0.6589,0.6612,0.6623,0.6644,0.6666,0.6698,0.6712,0.6729,0.6732,0.6735,0.6736,0.6737,0.6736,0.6728,0.6733,0.6733,0.6733,0.6733,0.6733,0,0.646,0.6475,0.6491,0.6515,0.653,0.6539,0.656,0.6571,0.6589,0.6608,0.6625,0.6649,0.6669,0.6691,0.6713,0.6723,0.6729,0.6728,0.6728,0.6731,0.6731,0.6727,0.6723,0.6723,0.6723,0.6723,0.6723,0.6723,0.646,0.6477,0.6489,0.6514,0.6529,0.6548,0.6559,0.6575,0.659,0.6616,0.6633,0.6647,0.6668,0.6692,0.6711,0.6717,0.6725,0.6722,0.673,0.673,0.6731,0.6732,0.6728,0.6724,0.6724,0.6729,0.6729,0.6729]},{"header":{"parameterUnit":"m.s-1","parameterCategory":1,"la1":30.2991,"la2":30.254,"lo1":-89.0895,"lo2":-89.0444,"dy":0.0017,"dx":0.0017,"nx":28,"ny":28,"refTime":"2025-02-26T09:00:00:Z","depth":0,"parameterNumber":3,"parameterNumberName":"V-component_of_WINDS"},"data":[0,0,0,0,0,0,0,0,0,0,0,0,0,0,0,0,0,0,0,0,0,0,0,0,0,0,0,0,0,0,0,0,0,0,0,0,0,0,0,0,0,0,0,0,0,0,0,0,0,0,0,0,0,0,0,0,0,0,0.1292,0.1291,0,0.1274,0.1274,0.1274,0.1279,0.1279,0.128,0.128,0.1261,0.126,0.1259,0,0,0,0,0,0,0,0,0,0,0,0,0,0.1328,0.1328,0.1292,0.1291,0.1291,0.1274,0.1274,0.1274,0.1279,0.1279,0.128,0.128,0.1261,0.126,0.1259,0,0,0,0,0,0,0,0,0,0,0,0,0,0.1312,0.1328,0.1292,0.1292,0.1292,0.1274,0.1274,0.1274,0.1279,0.1279,0.128,0.1281,0.1261,0.126,0.1259,0.1239,0,0,0.1255,0.1254,0,0,0,0,0,0,0,0,0.1313,0.131,0.1292,0.1292,0.1292,0.1279,0.128,0.1262,0.1279,0.1284,0.128,0.1281,0.1266,0.1265,0.126,0.1238,0.1238,0.1255,0.1254,0.1253,0.1253,0,0,0,0,0,0,0,0.1314,0.1311,0.1285,0.1292,0.1291,0.1292,0.1291,0.1276,0.1272,0.1283,0.1284,0.1282,0.1266,0.1261,0.126,0.1237,0.1255,0.1253,0.1253,0.1252,0.1199,0.1198,0,0,0,0,0,0,0.1315,0.1312,0.1285,0.1284,0.1304,0.1291,0.1289,0.1283,0.1272,0.1271,0.1281,0.1282,0.1263,0.1261,0.1259,0.1235,0.1253,0.1252,0.1251,0.1199,0.1199,0.1198,0,0,0,0,0,0,0.1316,0.1313,0.1286,0.1298,0.1295,0.129,0.1283,0.1282,0.1277,0.1271,0.127,0.1277,0.1264,0.1261,0.1244,0.1235,0.1251,0.125,0.12,0.1199,0.1198,0.1188,0,0,0,0,0,0,0.1317,0.1313,0.1306,0.1298,0.1294,0.1272,0.1282,0.1281,0.1275,0.1276,0.1266,0.1265,0.1264,0.1246,0.1243,0.1233,0.1249,0.1201,0.12,0.1199,0.1189,0.1187,0.1185,0,0,0,0,0,0.1318,0.1304,0.1306,0.1302,0.1285,0.1271,0.1269,0.1268,0.1274,0.1267,0.1263,0.1266,0.1236,0.1244,0.1241,0.1231,0.1201,0.12,0.1199,0.119,0.1187,0.1185,0,0,0,0,0,0,0.131,0.1303,0.1305,0.1287,0.128,0.1272,0.1263,0.1265,0.1256,0.1257,0.1255,0.1253,0.1236,0.1232,0.1241,0.1211,0.122,0.1218,0.1215,0.1212,0.121,0.1211,0.1248,0,0,0,0,0,0.1306,0.1296,0.129,0.1275,0.1271,0.1268,0.1262,0.1261,0.1254,0.1251,0.1245,0.1237,0.1226,0.1219,0.1208,0.1189,0.1186,0.118,0.1178,0.1176,0.1174,0.1163,0.116,0.1193,0.1193,0.1193,0,0,0.1298,0.1293,0.1286,0.1273,0.1267,0.1256,0.1265,0.1253,0.1244,0.1249,0.1233,0.1228,0.1219,0.1201,0.1193,0.1197,0.1164,0.1174,0.1173,0.1172,0.1161,0.1158,0.1155,0.1192,0.1192,0.1193,0,0,0.1278,0.1273,0.126,0.1254,0.1245,0.1243,0.124,0.1232,0.123,0.1214,0.1217,0.1206,0.1188,0.1181,0.1175,0.1152,0.1154,0.1149,0.1137,0.1126,0.1124,0.1121,0.1112,0.1109,0.1147,0.1147,0.1147,0,0.1268,0.1252,0.1252,0.124,0.1234,0.1238,0.1224,0.1218,0.1207,0.1202,0.1207,0.1183,0.1178,0.1158,0.1152,0.1147,0.1143,0.1149,0.1124,0.1122,0.1119,0.1111,0.1108,0.1146,0.1146,0.1146,0.1146,0,0.1241,0.123,0.122,0.1209,0.1202,0.1189,0.1187,0.1179,0.118,0.1177,0.116,0.1154,0.1142,0.1137,0.1138,0.1117,0.112,0.1125,0.1133,0.1116,0.1108,0.1104,0.1145,0.1145,0.1146,0.1146,0,0,0.1214,0.1204,0.12,0.1195,0.1186,0.1177,0.1164,0.1153,0.1147,0.1139,0.1127,0.1111,0.1116,0.1109,0.1108,0.1099,0.1081,0.1105,0.1104,0.11,0.1057,0.1053,0.1049,0.1082,0.1082,0.1081,0.1058,0,0.1192,0.117,0.117,0.1149,0.1138,0.1142,0.113,0.1123,0.112,0.1111,0.1107,0.1096,0.1102,0.1098,0.1089,0.1085,0.1072,0.1087,0.1071,0.107,0.1072,0.1045,0.1041,0.1019,0.1055,0.1054,0.1054,0,0.1164,0.1155,0.1133,0.1126,0.1121,0.1111,0.1101,0.1092,0.1084,0.1082,0.1075,0.1076,0.1062,0.1072,0.1052,0.1062,0.1056,0.1053,0.1052,0.105,0.106,0.1042,0.1012,0.1009,0.1049,0.1049,0.105,0,0.1145,0.1128,0.1113,0.1109,0.11,0.1093,0.1089,0.1081,0.1075,0.1065,0.1061,0.105,0.1044,0.1035,0.1033,0.1041,0.1014,0.1023,0.1011,0.1011,0.1005,0.1005,0.0973,0.1002,0.1002,0.1002,0.1002,0,0.1121,0.1107,0.1105,0.1095,0.108,0.108,0.1065,0.1061,0.1055,0.1044,0.1046,0.1036,0.1035,0.1024,0.1022,0.1006,0.1004,0.1002,0.1001,0.1001,0.1001,0.0996,0.0997,0.1001,0.1002,0.1002,0.1002,0,0.1097,0.1095,0.1079,0.1072,0.107,0.1059,0.1053,0.1043,0.1041,0.1028,0.1024,0.102,0.1008,0.1005,0.0991,0.0989,0.097,0.0971,0.0973,0.0973,0.0961,0.0962,0.0924,0.0918,0.0952,0.0951,0.0951,0,0.1081,0.1071,0.1063,0.1056,0.1052,0.1041,0.1035,0.1034,0.1027,0.1017,0.1009,0.0997,0.0987,0.0967,0.0962,0.0951,0.0952,0.0939,0.095,0.095,0.0951,0.0951,0.095,0.0937,0.0937,0.0936,0.0936,0,0.1053,0.1052,0.1043,0.1033,0.1025,0.1017,0.1009,0.1003,0.1002,0.0993,0.0981,0.0974,0.0959,0.0947,0.0935,0.0931,0.0933,0.0933,0.0929,0.0929,0.093,0.0928,0.0966,0.0934,0.0934,0.0934,0.0934,0.0934,0.1032,0.1023,0.1016,0.1005,0.0999,0.0992,0.0983,0.098,0.097,0.0958,0.0958,0.0944,0.0936,0.0921,0.0916,0.0905,0.0909,0.0904,0.0902,0.0901,0.09,0.0932,0.0903,0.0903,0.0903,0.0903,0.0903,0,0.1003,0.0999,0.0989,0.0978,0.097,0.0973,0.0965,0.0957,0.0946,0.0938,0.0929,0.0915,0.0903,0.0897,0.0886,0.0878,0.0878,0.0875,0.0875,0.0873,0.0897,0.0901,0.0874,0.0874,0.0874,0.0874,0.0874,0.0874,0.0987,0.0971,0.097,0.0952,0.0948,0.0935,0.0929,0.0923,0.0917,0.0901,0.0891,0.0888,0.0881,0.0869,0.0858,0.0857,0.0852,0.0848,0.0847,0.0869,0.0872,0.0875,0.0878,0.0847,0.0847,0.0824,0.0824,0.0824]}]]